Regional Weather Roundup
Issued by NWS

Home | Current Version | Previous Version | Text Only | Print | Product List | Glossary Off
Versions: 1 2 3 4 5 6 7 8 9 10 11 12 13 14 15 16 17 18 19 20 21 22 23 24 25 26 27 28 29 30 31 32 33 34 35 36 37 38 39 40 41 42 43 44 45 46 47 48 49 50

000
ASUS45 KPSR 210600
RWRAZ

PRELIMINARY ARIZONA REGIONAL HOURLY WEATHER ROUNDUP
NATIONAL WEATHER SERVICE PHOENIX AZ
1100 PM MST SAT DEC 20 2014

NOTE: FAIR INDICATES FEW OR NO CLOUDS BELOW 12,000 FEET WITH NO
SIGNIFICANT WEATHER AND/OR OBSTRUCTIONS TO VISIBILITY.

AZZ001>003-036-210700-
NORTHWEST ARIZONA

CITY           SKY/WX    TMP DP  RH WIND       PRES   REMARKS
KINGMAN        PTCLDY    35  31  85 E7        30.16F WCI  29
6HR MIN TEMP:  34; 6HR MAX TEMP:  52;

$$

AZZ004>008-015-016-018-210700-
NORTH CENTRAL ARIZONA

CITY           SKY/WX    TMP DP  RH WIND       PRES   REMARKS
GRAND CANYON   MOCLDY    28  24  85 CALM      30.17R
6HR MIN TEMP:  27; 6HR MAX TEMP:  42;

PRESCOTT       MOCLDY    35  26  69 S5        30.15S WCI  31
6HR MIN TEMP:  34; 6HR MAX TEMP:  49;

FLAGSTAFF      NOT AVBL
PAYSON         MOCLDY    39  30  70 CALM      30.15F
PAGE           CLOUDY    38  30  73 SW3       30.16R
6HR MIN TEMP:  36; 6HR MAX TEMP:  41;

$$

AZZ009>014-017-210700-
NORTHEAST ARIZONA

CITY           SKY/WX    TMP DP  RH WIND       PRES   REMARKS
WINSLOW        NOT AVBL
SAINT JOHNS    MOCLDY    32  26  78 CALM      30.11F
6HR MIN TEMP:  30; 6HR MAX TEMP:  44;

WINDOW ROCK    PTCLDY    29  24  82 CALM      30.13R
6HR MIN TEMP:  29; 6HR MAX TEMP:  42;

SHOW LOW       CLOUDY    32  23  69 S12       30.14F WCI  23
$$

AZZ023-210700-
GREATER PHOENIX AREA

CITY           SKY/WX    TMP DP  RH WIND       PRES   REMARKS
PHOENIX        CLOUDY    54  43  66 SE5       30.10R
6HR MIN TEMP:  53; 6HR MAX TEMP:  64;

LUKE AFB       CLOUDY    49  46  89 N6        30.11R
6HR MIN TEMP:  49; 6HR MAX TEMP:  61;

DEER VALLEY    CLOUDY    51  40  65 CALM      30.11R
6HR MIN TEMP:  49; 6HR MAX TEMP:  60;

SCOTTSDALE     CLOUDY    52  40  63 CALM      30.13R
6HR MIN TEMP:  51; 6HR MAX TEMP:  61;

MESA-GATEWAY   MOCLDY    46  43  87 SE5       30.14R
$$

AZZ027-028-210700-
SOUTHWEST MARICOPA COUNTY AND PINAL COUNTY

CITY           SKY/WX    TMP DP  RH WIND       PRES   REMARKS
CASA GRANDE    CLOUDY    46  41  81 CALM      30.13R
6HR MIN TEMP:  46; 6HR MAX TEMP:  59;

GILA BEND      FAIR      50  43  77 S5        30.13S
6HR MIN TEMP:  49; 6HR MAX TEMP:  63;

$$

AZZ503-504-507>509-210700-
SOUTHEAST ARIZONA

CITY           SKY/WX    TMP DP  RH WIND       PRES   REMARKS
TUCSON         CLOUDY    47  39  74 S5        30.14S
6HR MIN TEMP:  46; 6HR MAX TEMP:  60;

DAVIS-MONTHAN  MOCLDY    45  40  84 S3        30.12S
6HR MIN TEMP:  44; 6HR MAX TEMP:  58;

NOGALES        MOCLDY    39  30  70 NE6       30.14R WCI  35
6HR MIN TEMP:  39; 6HR MAX TEMP:  58;

SIERRA VISTA   CLOUDY    43  29  57 SE5       30.14R
6HR MIN TEMP:  40; 6HR MAX TEMP:  54;

SAFFORD        PTCLDY    40  36  86 CALM      30.12S
6HR MIN TEMP:  39; 6HR MAX TEMP:  53;

$$

AZZ020-021-025-026-031-210700-
SOUTHWEST ARIZONA

CITY           SKY/WX    TMP DP  RH WIND       PRES   REMARKS
YUMA           NOT AVBL
$$

CAZ031-033-041-043-047-048-061-210700-
SOUTHERN CALIFORNIA

CITY           SKY/WX    TMP DP  RH WIND       PRES   REMARKS
DOWNTOWN L.A.  CLOUDY    58  48  69 CALM      30.14F
6HR MIN TEMP:  58; 6HR MAX TEMP:  62;

L.A. AIRPORT   MOCLDY    58  50  75 CALM      30.15S
6HR MIN TEMP:  57; 6HR MAX TEMP:  61;

SAN DIEGO      CLOUDY    63  53  70 CALM      30.17F
6HR MIN TEMP:  62; 6HR MAX TEMP:  63;

BURBANK        CLOUDY    56  47  71 NE3       30.14S
6HR MIN TEMP:  55; 6HR MAX TEMP:  61;

ONTARIO        MOCLDY    51  45  79 E3        30.15F
6HR MIN TEMP:  50; 6HR MAX TEMP:  58;

RIVERSIDE      MOCLDY    50  47  89 E5        30.17R FOG
6HR MIN TEMP:  49; 6HR MAX TEMP:  59;

PALM SPRINGS   CLOUDY    56  43  61 N3        30.16R
6HR MIN TEMP:  54; 6HR MAX TEMP:  64;

EL CENTRO NAS  CLEAR     48  40  73 W7        30.13R
6HR MIN TEMP:  47; 6HR MAX TEMP:  65;

IMPERIAL       CLEAR     48  43  82 W5        30.13R
6HR MIN TEMP:  48; 6HR MAX TEMP:  64;

BLYTHE         CLEAR     51  47  86 CALM      30.13S
6HR MIN TEMP:  50; 6HR MAX TEMP:  60;

$$

NVZ020-UTZ003-210700-
SOUTHERN NEVADA-UTAH

CITY           SKY/WX    TMP DP  RH WIND       PRES   REMARKS
LAS VEGAS      NOT AVBL
SALT LAKE CITY CLOUDY    40  34  79 SE6       30.04F
6HR MIN TEMP:  40; 6HR MAX TEMP:  41;

$$

NMZ009-TXZ055-210700-
NEW MEXICO-WEST TEXAS

CITY           SKY/WX    TMP DP  RH WIND       PRES   REMARKS
ALBUQUERQUE    MOCLDY    34  27  75 E3        30.10S
6HR MIN TEMP:  33; 6HR MAX TEMP:  42;

EL PASO        CLOUDY    44  29  55 S5        30.10S
6HR MIN TEMP:  40; 6HR MAX TEMP:  55; 6HR PCP: TRACE;

$$


........................KEY........................
SKY/WX - SKY CONDITION/WEATHER
TMP    - TEMPERATURE IN FAHRENHEIT
DP     - DEW POINT IN FAHRENHEIT
RH     - RELATIVE HUMIDITY IN PERCENT
WIND   - DIRECTION AND SPEED IN MILES PER HOUR (MPH)
VRB    - VARIABLE WIND DIRECTION
PRES   - MEAN SEA LEVEL PRESSURE IN INCHES OF MERCURY
         F - FALLING PRESSURE   R - RISING PRESSURE
         S - STEADY PRESSURE
VSB    - VISIBILITY IN MILES
HX     - HEAT INDEX IN FAHRENHEIT
WCI    - WIND CHILL INDEX IN FAHRENHEIT
TC     - TEMPERATURE IN CELSIUS WHICH IS ALSO KNOWN AS
         TEMPERATURE IN CENTIGRADE
AFB    - AIR FORCE BASE
         LUKE AFB IS LUKE AIR FORCE BASE
         DAVIS-MONTHAN IS DAVIS-MONTHAN AIR FORCE BASE
NAS    - NAVAL AIR STATION
         EL CENTRO NAS IS EL CENTRO NAVAL AIR STATION
N/A    - NOT AVAILABLE


USA.gov is the U.S. government's official web portal to all federal, state and local government web resources and services.